#timestamp,LO_Frequency,Hit,StdDev 
1696208415.7,286047001.7,N
1696208435.5,286047001.8,N
1696208455.4,286047004.0,Y
1696208475.2,286047001.7,P
1696208495.0,286047004.1,P
1696208496.0,286047004.1,P
1696208515.8,286047003.3,N
1696208535.6,286047004.8,Y
1696208555.5,286047004.1,P
1696208575.3,286047003.8,P
1696208595.1,286047003.5,P
1696208615.9,286047005.6,Y
1696208635.7,286047002.8,P
1696208655.6,286046999.8,N
1696208675.4,286047001.9,N
1696208695.2,286047002.2,N
1696208715.1,286047003.7,N
1696208716.0,286047003.7,N
1696208735.8,286047001.3,N
1696208755.7,286047003.5,N
1696208775.5,286047004.3,Y
1696208795.3,286046999.9,P
1696208815.2,286047002.8,N
1696208835.0,286047002.0,N
1696208835.9,286047002.0,N
1696208855.8,286047001.4,N
1696208875.6,286047005.4,Y
1696208895.4,286047004.4,P
1696208915.3,286047006.0,P
1696208935.1,286047005.7,P
1696208955.8,286047005.6,Y
1696208975.7,286046998.3,P
1696208995.5,286047001.1,N
1696209015.4,286046998.4,N
1696209035.2,286046997.8,N
1696209055.0,286046997.6,N
1696209055.9,286046997.6,N
1696209075.8,286046996.9,N
1696209095.6,286046999.0,N
1696209115.5,286046997.1,N
1696209135.3,286046997.3,N
1696209155.1,286046997.0,N
1696209175.9,286046999.6,N
1696209195.7,286046997.1,N
1696209215.5,286046999.5,N
1696209235.4,286046996.6,N
1696209255.2,286047000.6,N
1696209275.1,286047000.8,N
1696209276.0,286047000.8,N
1696209295.8,286046998.4,N
1696209315.6,286047001.1,N
1696209335.5,286047000.7,N
1696209355.3,286047000.6,N
1696209375.2,286047000.3,N
1696209395.9,286047000.1,N
1696209415.7,286046999.7,N
1696209435.6,286047000.0,N
1696209455.4,286047002.5,N
1696209475.2,286047002.8,N
1696209495.1,286047002.8,N
1696209496.0,286047002.8,N
1696209515.8,286047001.8,N
1696209535.7,286047001.5,N
1696209555.5,286047004.0,N
1696209575.3,286047003.8,N
1696209595.2,286047003.6,N
1696209615.0,286047005.2,N
1696209615.9,286047005.2,N
1696209635.8,286047005.2,N
1696209655.6,286047006.0,N
1696209675.4,286047005.7,N
1696209695.3,286047004.6,N
1696209715.1,286047004.9,N
1696209735.8,286047006.3,N
1696209755.7,286047006.2,N
1696209775.5,286047009.2,Y
1696209795.4,286047004.7,P
1696209815.2,286047004.5,P
1696209835.0,286047004.9,P
1696209835.9,286047004.9,Y
1696209855.8,286047002.3,P
1696209875.6,286047002.7,N
1696209895.5,286046999.9,N
1696209915.3,286047000.6,N
1696209935.1,286047000.2,N
1696209955.9,286047002.7,N
1696209975.7,286047002.1,N
1696209995.6,286047004.0,N
1696210015.4,286047004.1,N
1696210035.2,286047003.6,N
1696210055.1,286047003.4,N
1696210056.0,286047003.4,N
1696210075.8,286047003.9,N
1696210095.6,286047003.9,N
1696210115.5,286047004.1,N
1696210135.3,286047004.2,N
1696210155.2,286047002.9,N
1696210175.9,286047005.7,Y
1696210195.7,286047000.1,P
1696210215.6,286046999.9,N
1696210235.4,286046999.8,N
1696210255.3,286047002.6,N
1696210275.1,286047003.2,N
1696210276.0,286047003.2,N
1696210295.8,286047004.3,N
1696210315.7,286047001.5,N
1696210335.5,286047002.5,N
1696210355.3,286047002.6,N
1696210375.2,286047002.0,N
1696210395.0,286047004.0,N
1696210395.9,286047004.0,N
1696210415.8,286047005.4,Y
1696210435.6,286047003.9,P
1696210455.4,286046999.7,N
1696210475.3,286047001.4,N
1696210495.1,286047004.3,N
1696210515.8,286047001.9,N
1696210535.7,286047003.9,N
1696210555.5,286047003.7,N
1696210575.4,286047003.8,N
1696210595.2,286047004.1,N
1696210615.0,286047003.7,N
1696210615.9,286047003.7,N
1696210635.8,286047003.2,N
1696210655.6,286047003.8,N
1696210675.5,286047004.1,Y
1696210695.3,286047000.2,P
1696210715.1,286047001.9,N
1696210735.9,286047002.1,N
1696210755.7,286047001.5,N
1696210775.5,286047002.5,N
1696210795.4,286046999.7,N
1696210815.2,286047002.4,N
1696210835.1,286047003.2,N
1696210836.0,286047003.2,N
1696210855.8,286047003.2,N
1696210875.6,286047003.2,N
1696210895.5,286047004.1,Y
1696210915.3,286047004.0,P
1696210935.2,286047002.5,N
1696210955.9,286047001.5,N
1696210975.7,286047002.5,N
1696210995.6,286047002.2,N
1696211015.4,286047001.5,N
1696211035.2,286047001.8,N
1696211055.1,286047001.9,N
1696211056.0,286047001.9,N
1696211075.8,286047002.8,Y
1696211095.7,286046998.8,P
1696211115.5,286046998.6,N
1696211135.3,286047001.2,N
1696211155.2,286047000.6,N
1696211175.0,286047000.8,N
1696211175.9,286047000.8,N
1696211195.8,286047001.0,N
1696211215.6,286047000.3,N
1696211235.4,286047002.8,N
1696211255.3,286047000.1,N
1696211275.1,286046999.9,N
1696211295.8,286047001.6,N
1696211315.7,286047003.6,Y
1696211335.5,286047002.1,P
1696211355.4,286047002.5,P
1696211375.2,286047002.4,P
1696211395.0,286047002.6,Y
1696211395.9,286047002.6,P
1696211415.8,286047000.5,N
1696211435.6,286047000.4,N
1696211455.4,286046999.9,N
1696211475.3,286047002.5,N
1696211495.1,286047002.3,N
1696211515.9,286047002.7,N
1696211535.7,286047001.9,N
1696211555.5,286046999.8,N
1696211575.4,286047000.8,N
1696211595.2,286046999.8,N
1696211615.0,286047002.7,N
1696211615.9,286047002.7,N
1696211635.8,286047002.7,N
1696211655.6,286047004.3,Y
1696211675.5,286047002.0,P
1696211695.3,286047002.0,P
1696211715.1,286046999.7,N
1696211735.9,286047000.9,N
1696211755.7,286047000.9,N
1696211775.6,286047001.2,N
1696211795.4,286046999.0,N
1696211815.2,286047000.0,N
1696211835.1,286047000.8,N
1696211836.0,286047000.8,N
1696211855.8,286046999.7,N
1696211875.7,286047002.2,N
1696211895.5,286047001.3,N
1696211915.3,286047004.4,Y
1696211935.2,286047002.6,P
1696211955.0,286047002.1,N
1696211955.9,286047002.1,N
1696211975.7,286046999.7,N
1696211995.6,286047001.8,N
